sat.trackr.live / text

‹ back to catalog

KUIPER-00054

NORAD 64514 · 2025-134Q

PAYLOAD ACTIVE UNKNOWN

§ Identity

Operator
Country
US
Launch date
2025-06-23
Launch site
AFETR
Launch vehicle
Mass (kg)
RCS (m²)

External: N2YO · Heavens-Above · Gunter

§ Orbital elements

Epoch: 2026-05-25T05:24:25.195968Z

Period
97.30 min
Inclination
51.8967°
Eccentricity
0.0000311
Mean motion
14.79943781 rev/d
Perigee alt
629.3 km
Apogee alt
629.7 km
Semi-major
7,007.6 km
B*
4.6797e-4
RAAN
239.6147°
Arg perigee
115.3251°
Mean anomaly
244.7744°
Rev number
5,161

§ Raw data

KUIPER-000541 64514U 25134Q   26145.22529162  .00003349  00000+0  46797-3 0  99962 64514  51.8967 239.6147 0000311 115.3251 244.7744 14.79943781 51611

JSON: /api/v1/satellites/64514 · /tle

For live sub-satellite position, see the globe view (requires WebGL).

§ Visibility from observer

Set your observer location to see the next 7 days of passes ≥ 10°. The values pass through the URL so the page stays shareable.

No JS? Fill the form by hand. The geolocation button needs JavaScript.